Regional Weather Roundup
Issued by NWS

Home | Current Version | Previous Version | Text Only | Print | Product List | Glossary On
Versions: 1 2 3 4 5 6 7 8 9 10 11 12 13 14 15 16 17 18 19 20 21 22 23 24 25 26 27 28 29 30 31 32 33 34 35 36 37 38 39 40 41 42 43 44 45 46 47 48 49 50
000
ASUS42 KTBW 240617
RWRFL
FLORIDA REGIONAL WEATHER ROUNDUP
NATIONAL WEATHER SERVICE TAMPA BAY RUSKIN FL
200 AM EDT MON APR 24 2017

NOTE: "FAIR" INDICATES FEW OR NO CLOUDS BELOW 12,000 FEET WITH NO
SIGNIFICANT WEATHER AND/OR OBSTRUCTIONS TO VISIBILITY.

FLZ001>010-012>015-112-114-115-240700-
PANHANDLE FLORIDA

CITY           SKY/WX    TMP DP  RH WIND       PRES   REMARKS
PENSACOLA      CLEAR     57  49  74 NW9       29.85F
PENSACOLA NAS  CLEAR     56  49  77 NW5       29.85F
MILTON NAS     LGT RAIN  55  51  86 NW9       29.84F
CRESTVIEW      CLEAR     53  50  89 NW3       29.85F
DUKE FIELD     FAIR      54  50  86 NW5       29.82F
VALPARAISO     PTCLDY    56  50  80 NW9       29.83F
MARY ESTHER    PTCLDY    56  47  71 NW6       29.82F
PANAMA CITY    MOCLDY    58  52  80 NW9       29.81F
TYNDALL AFB    CLOUDY    61  54  77 NW13      29.81F
APALACHICOLA   PTCLDY    61  61 100 CALM      29.79F

STATION/POSITION SKY/WX   TEMP    WIND        PRES    WAVE   SWELL
                          AIR SEA DIR/SP/G            HT/PER HT/PER
                          (F)     (DEG/KT/KT) (MB)    (FT/S) (FT/S)
30.1N   87.6W              61 74  350/ 19/ 23 1010.6F   3/ 5
29.2N   88.2W              64 74  330/ 19/ 25 1012.0
28.8N   86.0W              70 74  300/ 16/ 17 1009.0F   4/ 6
PANAMA CITY BEAC              76  330/ 11/ 13 1010.0F
TOWER C                    69     320/  9/ 11 1009.2F
28.5N   84.5W              71 74  300/ 16/ 19 1008.6F   3/ 4

$$
FLZ011-016>038-118-127-128-134-139-239-240700-
NORTH FLORIDA

CITY           SKY/WX    TMP DP  RH WIND       PRES   REMARKS
MARIANNA       CLEAR     58  53  84 W8        29.80F
TALLAHASSEE    MOCLDY    63  61  93 NW6       29.78F
PERRY          CLOUDY    66  58  75 NW6       29.79F
CROSS CITY     CLOUDY    70  64  83 W8        29.76F
LAKE CITY      MOCLDY    68  68 100 S5        29.75F
GAINESVILLE    PTCLDY    71  66  84 W8        29.76F
WILLISTON      CLEAR     70  68  94 CALM      29.77F
PALATKA        CLOUDY    72  68  88 W6        29.77F
MAYPORT NAS    MOCLDY    69  68  96 S8        29.75F
JACKSONVILLE   MOCLDY    71  66  84 S8        29.74F
JAX NAS        MOCLDY    74  66  76 SW8       29.76F
FERNANDINA BEA FAIR      73  68  83 S8        29.73F
ST AUGUSTINE   CLOUDY    72  67  84 S7        29.76F

STATION/POSITION SKY/WX   TEMP    WIND        PRES    WAVE   SWELL
                          AIR SEA DIR/SP/G            HT/PER HT/PER
                          (F)     (DEG/KT/KT) (MB)    (FT/S) (FT/S)
SHELL POINT      NOT AVBL
KEATON BEACH               68     340/  6/ 10 1007.9F
CEDAR KEY                  73     290/ 10/ 15 1008.2F
FERNANDINA                    77  180/  4/  7 1008.1F
30.7N   81.3W                 73                N/A     4/ 5   2/11
MAYPORT                       76  190/  6/  9 1007.8F
31.4N   80.9W              71 72  180/ 19/ 23 1007.0F   4/ 5   2/11
ST AUGUSTINE               71 76  200/  8/ 11 1008.4F

$$
FLZ040-043>046-052-053-057-058-063-144-240700-
INTERIOR CENTRAL FLORIDA

CITY           SKY/WX    TMP DP  RH WIND       PRES   REMARKS
OCALA          MOCLDY    70  64  83 S5        29.77F
THE VILLAGES     N/A     73  70  88 CALM      29.69F
LEESBURG       MOCLDY    73  69  87 SW3       29.79F
SANFORD        CLOUDY    73  66  78 S5        29.78F
ORLANDO EXEC   CLOUDY    73  66  78 S5        29.78F
ORLANDO INTL   MOCLDY    71  67  87 CALM      29.79F
KISSIMMEE      CLOUDY    71  67  87 CALM      29.80F
WINTER HAVEN   PTCLDY    72  64  76 S3        29.80F
LAKELAND       CLOUDY    70  66  88 CALM      29.80F
BARTOW         FAIR      68  66  94 S5        29.79F
OKEECHOBEE     CLOUDY    63  63 100 W3        29.79F FOG

$$
FLZ041-047-054-059-064-141-147-240700-
EAST CENTRAL FLORIDA

CITY           SKY/WX    TMP DP  RH WIND       PRES   REMARKS
DAYTONA BEACH  MOCLDY    71  68  90 S6        29.78F
DELAND         MOCLDY    72  66  83 S6        29.77F
JFK SPACE CTR  MOCLDY    66  66 100 CALM      29.77F
CAPE CANAVERAL CLEAR     67  62  84 CALM      29.76F
PATRICK AFB    CLEAR     73  69  90 W5        29.76F
MELBOURNE      CLEAR     68  66  93 W5        29.77F
VERO BEACH     PTCLDY    68  67  96 CALM      29.77F
FT PIERCE      MOCLDY    68  68 100 NW3       29.77F
STUART         CLEAR     72 N/A N/A W3        29.77F

STATION/POSITION SKY/WX   TEMP    WIND        PRES    WAVE   SWELL
                          AIR SEA DIR/SP/G            HT/PER HT/PER
                          (F)     (DEG/KT/KT) (MB)    (FT/S) (FT/S)
28.5N   80.2W              76 75  140/  6/  8 1008.9F   5/12   5/12
28.9N   78.5W              74 79  110/ 23/ 29 1006.1F   8/ 8   3/11
TRIDENT PIER                  77  140/  4/  6 1009.6F
28.4N   80.5W                 75                N/A     3/13   2/13
27.5N   80.2W                 78                N/A     4/ 6   2/13

$$
FLZ050-056-061-142-242-148-248-149-249-151-251-155-255-
160-260-240700-
WEST CENTRAL FLORIDA

CITY           SKY/WX    TMP DP  RH WIND       PRES   REMARKS
CRYSTAL RIVER  MOCLDY    72  66  83 W5        29.78F
INVERNESS      FAIR      68  68 100 CALM      29.79F
BROOKSVILLE    PTCLDY    68  66  93 CALM      29.79F
CLEARWATER AIR FAIR      72  68  88 W7        29.79F
ST PETE CLEARW CLEAR     72  67  84 W6        29.80F
TAMPA INTL     MOCLDY    75  68  78 W8        29.80F
TAMPA EXEC     MOCLDY    70  66  88 CALM      29.81F
PLANT CITY     CLOUDY    73  70  88 CALM      29.81F
MACDILL AFB    MOCLDY    73  72  94 W6        29.79F
PETER O KNIGHT CLOUDY    77  70  78 W5        29.80F
ST PETERSBURG  PTCLDY    74  69  85 NW5       29.78F
SARASOTA       MOCLDY    73  68  84 NW8       29.79F
VENICE         CLOUDY    75  72  88 NW7       29.80F

STATION/POSITION SKY/WX   TEMP    WIND        PRES    WAVE   SWELL
                          AIR SEA DIR/SP/G            HT/PER HT/PER
                          (F)     (DEG/KT/KT) (MB)    (FT/S) (FT/S)
27.3N   84.2W                 74                N/A     1/ 5
CLEARWATER BEACH              80  260/ 11/ 13 1009.2F
MIDDLE TAMPA BAY                  310/ 11/ 13 1009.3F
VENICE                     75 76  300/ 10/ 11 1008.6F

$$
FLZ066-069-070-075>078-162-262-165-265-240700-
SOUTHWEST FLORIDA AND KEYS

CITY           SKY/WX    TMP DP  RH WIND       PRES   REMARKS
PUNTA GORDA    PTCLDY    71  65  81 CALM      29.80F
FT MYERS       CLEAR    N/A N/A N/A CALM      29.78F
SOUTHWEST INTL CLEAR     69  66  90 CALM      29.79F
NAPLES         PTCLDY    72  69  90 CALM      29.79F
IMMOKALEE      FAIR      66  66 100 CALM      29.78F
MARATHON       CLEAR     76  70  82 NW8       29.79F
KEY WEST NAS   CLEAR    N/A N/A N/A NW9       29.80F
KEY WEST INTL  PTCLDY    76  72  87 NW6       29.81F

STATION/POSITION SKY/WX   TEMP    WIND        PRES    WAVE   SWELL
                          AIR SEA DIR/SP/G            HT/PER HT/PER
                          (F)     (DEG/KT/KT) (MB)    (FT/S) (FT/S)
NAPLES                        76   CALM  /  1 1008.8F
26.0N   85.6W              77     300/ 17/ 25 1009.5
DRY TORTUGAS               76     340/ 10/ 12 1009.7F
SAND KEY                   75     330/ 11/ 13 1009.9F
LONG KEY                   75 77  310/  7/  8 1008.8F
MOLASSES REEF              74 78  300/ 10/ 11 1008.6F

$$
FLZ067-068-071>074-168-172>174-240700-
SOUTHEAST FLORIDA

CITY           SKY/WX    TMP DP  RH WIND       PRES   REMARKS
W PALM BEACH   PTCLDY    71  67  87 W5        29.77F
FT LAUDER-EXEC PTCLDY    73  68  84 W5        29.76F
FT LAUDERDALE  PTCLDY    70  70 100 NW7       29.76F
POMPANO BEACH  MOCLDY    71  70  96 W7        29.76F
PEMBROKE PINES CLOUDY    70  69  97 NW6       29.78F
OPA LOCKA      CLOUDY   N/A N/A N/A NW7       29.77F
MIAMI          CLOUDY    71  69  93 VRB3      29.77F FOG
WEST KENDALL   PTCLDY    67  65  93 W6        29.78F
HOMESTEAD      CLEAR     69  69 100 W7        29.77F

STATION/POSITION SKY/WX   TEMP    WIND        PRES    WAVE   SWELL
                          AIR SEA DIR/SP/G            HT/PER HT/PER
                          (F)     (DEG/KT/KT) (MB)    (FT/S) (FT/S)
PORT EVERGLADES            72     300/  8/ 10 1008.0F
VIRGINIA KEY                  77  260/  5/  7 1007.3F
LAKE WORTH                    77  280/  4/  5 1008.7F
FOWEY ROCKS                72 77  290/ 11/ 12 1008.5F
SETTLEMENT POINT           72     320/ 11/ 13 1006.1F

$$




USA.gov is the U.S. government's official web portal to all federal, state and local government web resources and services.